Location: Hollin Hills
(38.7573°N, 77.0661°W)
Time: 11:25:47
(UTC+00:00)

ISS - Pass Details

Date: 25 April 2026
Orbit: 414 x 424 km, 51.6° (Epoch: 11 May)

Event Time Altitude Azimuth Distance (km) Brightness Sun altitude
Exits shadow 07:24:20 18° 38° (NE) 1,105 -0.9 -28.8°
Drops below altitude 10° 07:25:21 10° 43° (NE) 1,499 0.0 -28.7°
Sets 07:27:30 0° 49° (NE) 2,368 1.3 -28.4°
